Regional Weather Roundup
Issued by NWS

Home | Current Version | Previous Version | Graphics & Text | Print | Product List | Glossary Off
Versions: 1 2 3 4 5 6 7 8 9 10 11 12 13 14 15 16 17 18 19 20 21 22 23 24 25 26 27 28 29 30 31 32 33 34 35 36 37 38 39 40 41 42 43 44 45 46 47 48 49 50

000
ASUS43 KMPX 241910
RWRMN
WEATHER ROUNDUP FOR MINNESOTA
NATIONAL WEATHER SERVICE TWIN CITIES/CHANHASSEN MN
100 PM CST FRI NOV 24 2017


NOTE: "FAIR" INDICATES FEW OR NO CLOUDS BELOW 12,000 FEET WITH NO
SIGNIFICANT WEATHER AND/OR OBSTRUCTIONS TO VISIBILITY. N/A MEANS
CURRENT SKY AND/OR WEATHER CONDITIONS ARE NOT AVAILABLE.

MNZ060>063-068>070-242000-
   Twin Cities Metro

CITY           SKY/WX    TMP DP  RH WIND       PRES   REMARKS
TWIN CITIES    CLOUDY    60  41  49 NW12      29.39R
ST PAUL        CLOUDY    59  40  49 NW12      29.39R
CRYSTAL        CLOUDY    59  38  45 W7G17     29.37R
BLAINE         PTSUNNY   61  43  51 SW9G16    29.37S
LAKEVILLE      CLOUDY    57  41  54 NW15G21   29.39R
EDEN PRAIRIE   MOSUNNY   59  40  49 NW10      29.38R
SOUTH ST PAUL  CLOUDY    59  39  48 NW13G18   29.38R
LAKE ELMO      FAIR      55  39  54 NW8       29.40R
$$
MNZ001>005-007-008-013>017-022>024-027-028-242000-
   Northwest Minnesota

CITY           SKY/WX    TMP DP  RH WIND       PRES   REMARKS
BEMIDJI        CLOUDY    41  38  89 W12       29.37R
HALLOCK        SUNNY     39  36  87 NW16      29.43R
ROSEAU         SUNNY     43  37  81 NW12G17   29.37R
WARROAD        SUNNY     43  36  75 W15       29.36R
THIEF RVR FALL SUNNY     42  35  76 NW17G29   29.43R
CROOKSTON      SUNNY     45  37  76 NW24G30   29.45R
FOSSTON        MOSUNNY   43  37  81 W14       29.43R
DETROIT LAKES  CLOUDY    41  39  93 NW18G24   29.45R
MOORHEAD       MOSUNNY   48  41  76 NW21      29.48R
PARK RAPIDS    CLOUDY    43  39  86 NW9       29.37R
MAHNOMEN       FAIR      43  39  87 NW17      29.43R
$$
MNZ006-009>011-018-025>026-242000-
   North Central Minnesota

CITY           SKY/WX    TMP DP  RH WIND       PRES   REMARKS
BAUDETTE       CLOUDY    40  34  79 NW14      29.33R
FLAG ISLAND    CLOUDY    37  30  75 NW14      29.32R
INTL FALLS     CLOUDY    40  32  73 W13       29.30R
WASKISH        MOSUNNY   37  36  93 SW9       29.35R
BIG FORK       CLOUDY    41  37  87 W3        29.32R
LONGVILLE      LGT RAIN  41  39  93 W7        29.35S
GRAND RAPIDS   RAIN      41  39  93 NW12      29.35R
CRANE LAKE     CLOUDY    39  36  87 W3        29.29R
ORR            CLOUDY    39  34  81 NW9       29.27R
COOK           CLOUDY    39  37  93 W7        29.30R
WALKER         CLOUDY    41  38  91 NW10      29.36S
$$
MNZ012-019>021-037-242000-
   Northeast Minnesota

CITY           SKY/WX    TMP DP  RH WIND       PRES   REMARKS
DULUTH         LGT RAIN  41  40  96 W13       29.28R
ELY            LGT RAIN  39  37  93 W9        29.27R
HIBBING        LGT RAIN  39  37  92 NW10      29.30R
EVELETH        LGT RAIN  39  35  87 W8        29.30R
DULUTH HARBOR  LGT RAIN  43  39  87 SW12      29.29S
TWO HARBORS    LGT RAIN  45  39  81 W3        29.24R
SILVER BAY     CLOUDY    43  41  93 NW3       29.24R
GRAND MARAIS     N/A     43  40  89 W9        29.22R
G MARAIS ARPRT CLOUDY    39  34  81 W7        29.20R
$$
MNZ029>031-032-039>041-046>048-054>057-064-242000-
   West Central Minnesota

CITY           SKY/WX    TMP DP  RH WIND       PRES   REMARKS
FERGUS FALLS   MOSUNNY   43  43 100 NW14G21   29.48R
WHEATON        PTSUNNY   48  41  76 NW15      29.49F
MORRIS         CLOUDY    46  43  87 NW24G30   29.46R
ALEXANDRIA     CLOUDY    45  42  89 NW12      29.44R
ELBOW LAKE     PTSUNNY   42  40  93 W10       29.46R
WADENA         CLOUDY    43  39  87 W8        29.40S
GLENWOOD       CLOUDY    46  45  93 NW20G30   29.43R
APPLETON       CLOUDY    52  45  76 NW18G29   29.46R
BENSON         CLOUDY    52  45  76 N16G22    29.46R
ORTONVILLE     CLOUDY    48  43  81 NW17G26   29.48R
MADISON        CLOUDY    57  45  62 NW25G33   29.47R
WILLMAR        DRIZZLE   54  46  76 W15G22    29.43R
$$
MNZ033>034-036-042>043-049>051-058-059-242000-
   Central Minnesota

CITY           SKY/WX    TMP DP  RH WIND       PRES   REMARKS
ST CLOUD       CLOUDY    53  45  74 W16G22    29.36F
SAUK CENTRE    CLOUDY    48  43  82 NW20G25   29.41R
PAYNESVILLE    CLOUDY    54  45  72 W26G35    29.39R
AITKIN         CLOUDY    43  39  87 NW8       29.33R
PINE RIVER     CLOUDY    43  37  81 NW6       29.41R
BRAINERD       CLOUDY    47  42  83 NW14      29.37R
STAPLES        CLOUDY    43  39  87 NW13      29.39R
LONG PRAIRIE   CLOUDY    46  41  81 W17G29    29.41R
LITTLE FALLS   CLOUDY    50  37  62 W20G25    29.39R
LITCHFIELD     PTSUNNY   57  45  62 W14G21    29.40R
BUFFALO        CLOUDY    56  40  55 W8        29.38F
MAPLE LAKE     PTSUNNY   57  44  61 W7        29.38F
HUTCHINSON     MOSUNNY   61  44  54 W12G18    29.40F
$$
MNZ037-044-045-052-053-242000-
   East Central Minnesota

CITY           SKY/WX    TMP DP  RH WIND       PRES   REMARKS
PRINCETON      DRIZZLE   55  43  62 W5        29.36S
MORA           RAIN      46  41  81 W3        29.36R
CAMBRIDGE      CLOUDY    55  41  58 W5        29.35F
RUSH CITY      CLOUDY    50  41  71 SW3       29.35S
MOOSE LAKE     LGT RAIN  43  41  93 W5        29.30R
HINCKLEY       LGT RAIN  46  43  87 S6        29.33F
CLOQUET        LGT RAIN  43  39  87 W10       29.31R
MCGREGOR       CLOUDY    43  41  93 NW8       29.33R
$$
MNZ071>073-080-081-089-090-097-098-242000-
   Southwest Minnesota

CITY           SKY/WX    TMP DP  RH WIND       PRES   REMARKS
MONTEVIDEO     CLOUDY    55  43  62 NW16G23   29.44R
GRANITE FALLS  CLOUDY    59  44  56 W28G37    29.46R
CANBY          CLOUDY    57  42  57 NW30G36   29.50R
MARSHALL       CLOUDY    61  38  42 NW39G46   29.43F
REDWOOD FALLS  CLOUDY    62  39  42 W17       29.43F
OLIVIA         MOSUNNY   59  41  51 NW24G30   29.40F
PIPESTONE      CLOUDY    57  36  44 NW25G32   29.49F
WINDOM           N/A     64  41  42 NW28G45   29.45F
WORTHINGTON    PTSUNNY   61  39  44 NW33G44   29.50R
JACKSON        MOSUNNY   63  37  39 NW32G46   29.45F
SLAYTON        CLOUDY    59  38  45 NW31G44   29.49S
$$
MNZ065>067-074>077-082>085-091>093-242000-
   South Central Minnesota

CITY           SKY/WX    TMP DP  RH WIND       PRES   REMARKS
MANKATO        SUNNY     61  41  47 NW22G31   29.42R
NEW ULM        MOSUNNY   61  41  48 NW12G26   29.43S
ST JAMES       SUNNY     61  39  44 NW18G29   29.45S
FAIRMONT       SUNNY     63  42  46 NW25G35   29.44R
GLENCOE        PTSUNNY   61  42  50 W15G21    29.39F
FARIBAULT      SUNNY     61  41  48 NW16G25   29.41R
OWATONNA       SUNNY     61  43  51 NW18      29.41R
WASECA         SUNNY     63  41  45 NW24G32   29.42R
ALBERT LEA     SUNNY     61  37  41 NW12G24   29.41R
$$
MNZ078>079-086>088-094>096-242000-
   Southeast Minnesota

CITY           SKY/WX    TMP DP  RH WIND       PRES   REMARKS
ROCHESTER      SUNNY     60  42  51 W14G25    29.38R
RED WING       SUNNY     63  36  36 NW15G25   29.37R
STANTON        SUNNY     61  40  45 NW18G25   29.38R
DODGE CENTER   SUNNY     59  39  47 W20G26    29.39R
WINONA         SUNNY     61  37  41 W9G17     29.36R
AUSTIN         SUNNY     59  39  47 W13       29.39R
PRESTON        SUNNY     58  40  49 W16       29.38R
$$
ABBREVIATIONS USED IN REMARKS
   TC - TEMPERATURES IN CELSIUS
  WCI - WIND CHILL INDEX
   HX - HEAT INDEX
  VSB - VISIBILITY
$$



USA.gov is the U.S. government's official web portal to all federal, state and local government web resources and services.